OpenBCM V1.13 (Linux)

Packet Radio Mailbox

DB0FHN

[JN59NK Nuernberg]

 Login: GUEST





  
LU9DCE > KEP      27.02.19 20:34l 253 Lines 12370 Bytes #999 (0) @ WW
BID : 19360_LU9DCE
Read: DK3UZ DF7EAV GUEST
Subj: TLE 27 02
Path: DB0FHN<DB0BLO<DB0ERF<DB0RES<IR2UBX<IW8PGT<CX2SA<N3HYM<LU9DCE
Sent: 190227/1800Z 19360@LU9DCE.TOR.BA.ARG.SOAM LinBPQ6.0.18

            __    _  _  ___  ____   ___  ____    ____  ____  ____
           (  )  / )( \/ _ \(    \ / __)(  __)  (  _ \(  _ \/ ___)
           / (_/\) \/ (\__  )) D (( (__  ) _)    ) _ ( ) _ (\___ \
           \____/\____/(___/(____/ \___)(____)  (____/(____/(____/
               ESTACION DE PACKET RADIO - BUENOS AIRES (GF05OM)
                   BOLETINES INFORMATIVOS PROGRAMADOS (BIP)
                  SOPORTE TECNICO - HELLOCODELINUX@GMAIL.COM

+----------------------------------------------------------------------------+
OSCAR 7
1  7530U 74089B   19057.90300851 -.00000021 +00000-0 +14823-3 0  9996
2  7530 101.7293 026.7770 0011954 201.7848 219.9780 12.53636853026274
OSCAR 11 (UoSAT 2)
1 14781U 84021B   19058.51154753  .00000054  00000-0  12839-4 0  9996
2 14781  97.6231  88.4179 0007680 334.3478  25.7354 14.83065931882285
OSCAR 19 (LUSAT)
1 20442U 90005G   19057.80576296 +.00000016 +00000-0 +21954-4 0  9993
2 20442 098.6379 000.0628 0012751 116.6670 243.5821 14.32918221520291
EYESAT A
1 22825U 93061C   19057.90272855 -.00000006 +00000-0 +15701-4 0  9993
2 22825 098.8944 044.0406 0007891 331.2835 028.7911 14.30051926325707
ITAMSAT
1 22826U 93061D   19058.49001847  .00000007  00000-0  20552-4 0  9990
2 22826  98.8885  44.6460 0008180 317.3707  42.6839 14.30385020326253
RADIO ROSTO
1 23439U 94085A   19057.96647994 -.00000043 +00000-0 -96365-5 0  9996
2 23439 064.8169 296.8043 0148724 134.6324 320.0558 11.27567916995290
JAS 2
1 24278U 96046B   19057.96849545 -.00000026  00000-0  83043-5 0  9992
2 24278  98.5198 226.6280 0350623 169.6540 191.2064 13.53089516112694
TECHSAT 1B
1 25397U 98043D   19057.80232692 -.00000015  00000-0  12690-4 0  9993
2 25397  98.6784 359.3681 0001771  40.7666 319.3644 14.23660766 71953
ISS (ZARYA)
1 25544U 98067A   19058.61125601 -.00003185  00000-0 -43117-4 0  9994
2 25544  51.6442 186.0499 0003522  58.8781  12.5049 15.52738973158230
PCSAT
1 26931U 01043C   19058.12680587 -.00000032  00000-0  19500-4 0  9994
2 26931  67.0507 291.5708 0005332 271.9314  88.1176 14.30533376909015
SAUDISAT 1C
1 27607U 02058C   19058.53048898 -.00000026  00000-0  17227-4 0  9997
2 27607  64.5557  29.4496 0082208 277.6677  81.5096 14.75522886870633
CUTE-1
1 27844U 03031E   19058.49246742  .00000036  00000-0  36140-4 0  9990
2 27844  98.6868  68.3546 0009709 359.6860   0.4310 14.22161922812487
CUBESAT XI 4
1 27848U 03031J   19057.96041669 +.00000026 +00000-0 +31708-4 0  9990
2 27848 098.6948 068.3045 0009854 012.2878 347.8538 14.21759209812239
MOZHAYETS 4
1 27939U 03042A   19058.37548164  .00000116  00000-0  29409-4 0  9996
2 27939  98.0201 196.4838 0014148  63.8553 296.4117 14.66756842824226
CUBESAT XI 5
1 28895U 05043F   19057.93954532  .00000089  00000-0  25914-4 0  9998
2 28895  97.9398 204.6196 0016358 349.0732  11.0113 14.63633242711132
CUTE-1.7+APD II
1 32785U 08021C   19057.87677110  .00000192  00000-0  26335-4 0  9990
2 32785  97.5485  62.8781 0011550 274.5053  85.4845 14.88254931587059
DELFI C3
1 32789U 08021G   19057.85515617 +.00000560 +00000-0 +41730-4 0  9990
2 32789 097.4798 110.8262 0013425 142.7592 217.4569 15.06675832590023
SEEDS
1 32791U 08021J   19058.01532427  .00000189  00000-0  24615-4 0  9990
2 32791  97.5304  68.8484 0011929 247.3082 112.6876 14.90740938587475
YUBELEINY
1 32953U 08025A   19058.49616582  .00000020  00000-0  75656-4 0  9996
2 32953  82.5026 213.8937 0019305  15.1666 344.9991 12.43087802488490
PRISM (HITOMI)
1 33493U 09002B   19057.73921445 -.00000095  00000-0 -27724-5 0  9993
2 33493  98.1236 334.4565 0014565 189.3283 170.7669 14.96523003548408
KKS-1 (KISEKI)
1 33499U 09002H   19057.91122981 +.00000063 +00000-0 +17338-4 0  9999
2 33499 098.3547 253.0055 0008822 195.0120 165.0828 14.75409277542315
SWISSCUBE
1 35932U 09051B   19058.01358080  .00000110  00000-0  35994-4 0  9991
2 35932  98.5731 220.7974 0008414 142.5820 217.5964 14.56247429500527
BEESAT
1 35933U 09051C   19058.02356450  .00000099  00000-0  33235-4 0  9994
2 35933  98.5764 222.5083 0006432 152.4619 207.6920 14.56341334500633
ITUPSAT 1
1 35935U 09051E   19058.01705542  .00000061  00000-0  25174-4 0  9997
2 35935  98.5877 222.7463 0008764 151.6773 208.4901 14.55506315500398
XIWANG-1 (HOPE-1)
1 36122U 09072B   19057.70477256 -.00000050 +00000-0 -20400-4 0  9999
2 36122 100.0726 065.3528 0006789 242.4417 117.5996 13.16348305442142
TISAT 1
1 36799U 10035E   19057.94843912  .00000435  00000-0  50059-4 0  9990
2 36799  98.1377 206.5120 0013622  93.0991 267.1786 14.91012279468115
JUGNU
1 37839U 11058B   19058.07752250  .00000311  00000-0  23584-4 0  9997
2 37839  19.9612 291.6191 0018915 176.5608 336.5655 14.12642543381452
SRMSAT
1 37841U 11058D   19058.17670178  .00000300  00000-0  19571-4 0  9998
2 37841  19.9731 345.4842 0011908  52.5555  90.6091 14.10624945380924
M-CUBED/EXP-1 PRIME
1 37855U 11061F   19057.99845322  .00000718  00000-0  44062-4 0  9997
2 37855 101.7280 256.1819 0174404  47.7835 313.8029 15.05159646399970
HORYU 2
1 38340U 12025D   19057.56118361 +.00000134 +00000-0 +27641-4 0  9993
2 38340 098.3437 092.7040 0012733 119.1426 241.1059 14.75671275354218
STRAND 1
1 39090U 13009E   19058.02071719  .00000008  00000-0  17921-4 0  9996
2 39090  98.4989 265.7746 0008035 259.8925 100.1354 14.35072201314370
SOMP
1 39134U 13015E   19058.03691529  .00001393  00000-0  73808-4 0  9994
2 39134  64.8641  22.0898 0020289 321.8163  38.1525 15.19843511323623
BEESAT 3
1 39135U 13015F   19058.02658196  .00000723  00000-0  45995-4 0  9999
2 39135  64.8704  38.8864 0009917 281.6931  78.3082 15.17225353323308
BEESAT 2
1 39136U 13015G   19058.02234353  .00000965  00000-0  58994-4 0  9996
2 39136  64.8698  42.3844 0010952 288.7646  71.2291 15.16660884323238
CUBEBUG 1
1 39153U 13018D   19058.24977159  .00000169  00000-0  28947-4 0  9991
2 39153  97.9753 157.0413 0016673 195.2711 164.8000 14.80517065315323
ZACUBE
1 39417U 13066B   19058.50216587  .00000208  00000-0  32413-4 0  9994
2 39417  97.5697  78.2137 0059910  39.7429 320.8150 14.81060032284586
TRITON 1
1 39427U 13066M   19058.54306347  .00000148  00000-0  31375-4 0  9992
2 39427  97.6651  42.8666 0114330 160.6978 199.8613 14.67784125282039
GOMX 1
1 39430U 13066Q   19058.46943785  .00000118  00000-0  30778-4 0  9993
2 39430  97.7320  22.4418 0149788 244.8438 113.7164 14.59201065280387
HUMSAT D
1 39433U 13066T   19058.36211218  .00000424  00000-0  46828-4 0  9997
2 39433  97.5699 110.3287 0029606 313.9444  45.9333 14.92090825286476
CUBEBUG 2
1 39440U 13066AA  19058.55905870  .00000202  00000-0  34821-4 0  9994
2 39440  97.6008  63.5716 0081855  86.1216 274.9348 14.75797676283583
FUNCUBE 1
1 39444U 13066AE  19057.95595025 +.00000243 +00000-0 +36256-4 0  9997
2 39444 097.5688 079.5285 0058947 035.9791 324.5369 14.81867021282790
UWE-3
1 39446U 13066AG  19058.55045076  .00000195  00000-0  32472-4 0  9994
2 39446  97.5840  70.4320 0071440  63.3594 297.4913 14.78332745282846
SPROUT
1 39770U 14029E   19058.21793496  .00000599  00000-0  72601-4 0  9999
2 39770  97.8786 162.3036 0010172  93.0929 267.1434 14.87190049258260
UNISAT 6
1 40012U 14033C   19058.54641911  .00000139  00000-0  28063-4 0  9998
2 40012  97.7743 289.8322 0059787  96.1830 264.6195 14.73930703252316
DUCHIFAT 1
1 40021U 14033M   19057.77394167  .00000276  00000-0  34130-4 0  9994
2 40021  97.9220 342.0228 0014301  61.8653 298.4007 14.90530573254870
QB50P1
1 40025U 14033R   19058.34226300  .00000208  00000-0  28132-4 0  9995
2 40025  97.9066 338.2091 0013843  68.1691 292.0996 14.88872062254752
CHUBUSAT 1
1 40300U 14070C   19058.14662008  .00000587  00000-0  28655-4 0  9999
2 40300  97.3371 135.1039 0021311  87.0092 306.6693 15.21925084239054
NUDT-PHONESAT
1 40900U 15049B   19058.44523385  .00001457  00000-0  66215-4 0  9990
2 40900  97.4404  68.8953 0012030 208.5261 257.7427 15.22306771190730
ZDPS 2A
1 40901U 15049C   19058.52285514  .00000487  00000-0  27608-4 0  9994
2 40901  97.4609  65.9657 0012204 224.3866 290.8207 15.17519618190371
ZDPS 2B
1 40902U 15049D   19058.52562959  .00000709  00000-0  38927-4 0  9999
2 40902  97.4531  63.6141 0012345 221.1563 256.6038 15.17297505190352
XW-2A
1 40903U 15049E   19058.39602375  .00001313  00000-0  33396-4 0  9999
2 40903  97.3535 100.4610 0013629 180.5016 276.5420 15.41399866193106
KAITUO 1A
1 40904U 15049F   19058.47515971  .00000577  00000-0  34151-4 0  9995
2 40904  97.4658  62.4066 0013173 229.6156 283.3676 15.15256717190159
OBJECT G
1 40905U 15049G   19058.53662052  .00000568  00000-0  34662-4 0  9993
2 40905  97.4680  60.1590 0014398 222.3822 254.6394 15.14192050190057
XW-2C
1 40906U 15049H   19058.55705602  .00000477  00000-0  28647-4 0  9990
2 40906  97.4664  62.4985 0013481 219.9524 258.7047 15.15519729190165
XW-2D
1 40907U 15049J   19058.41366164  .00000590  00000-0  34424-4 0  9998
2 40907  97.4638  62.0357 0012950 216.6707 249.5114 15.15696026190151
LILACSAT 2
1 40908U 15049K   19058.41155888  .00000422  00000-0  27017-4 0  9992
2 40908  97.4764  61.0478 0014525 223.8343 242.3577 15.13710055189970
XW-2F
1 40910U 15049M   19058.41241326  .00000880  00000-0  47794-4 0  9990
2 40910  97.4621  63.8132 0013752 210.5836 259.3930 15.17050193190149
XW-2B
1 40911U 15049N   19058.45105007  .00000276  00000-0  17991-4 0  9995
2 40911  97.4664  62.6933 0012942 217.0723 301.9533 15.15628606190051
KAITUO 1B
1 40912U 15049P   19058.41379016  .00000957  00000-0  48480-4 0  9998
2 40912  97.4513  67.2237 0014467 194.0060 275.9345 15.19330222190414
TIANWANG 1C (TW-1C)
1 40926U 15051B   19058.08379645  .00007514  00000-0  12065-3 0  9992
2 40926  97.1524 104.4951 0010532  72.4648 317.9629 15.53262955192829
